Tracking 28514 objects as of 23-Feb-2024
HD Live streaming from Space Station
objects crossing your sky now

IRIDIUM 163

Track IRIDIUM 163 now!
10-day predictions
IRIDIUM 163 is classified as:


NORAD ID: 43575
Int'l Code: 2018-061G
Perigee: 783.3 km
Apogee: 786.3 km
Inclination: 86.4 °
Period: 100.4 minutes
Semi major axis: 7155 km
RCS: Unknown
Launch date: July 25, 2018
Source: United States (US)
Launch site: AIR FORCE WESTERN TEST RANGE (AFWTR)
Your satellite tracking list
Your tracking list is empty




NASA's NSSDC Master Catalog

Two Line Element Set (TLE):
1 43575U 18061G   24054.52512107 -.00000036  00000-0 -19944-4 0  9990
2 43575  86.3935  49.7036 0002094  85.7509 274.3926 14.34217198292318
Source of the keplerian elements: AFSPC